{"data":{"norad_id":58841,"intl_designator":"2024-017R","name":"STARLINK-31236","alt_names":[],"object_type":"PAYLOAD","status":"ACTIVE","operator":null,"country":"US","launch_date":"2024-01-24","launch_site_code":"AFWTR","launch_vehicle":null,"mission":null,"orbit_class":"UNKNOWN","rcs_meters":null,"size_class":null,"mass_kg":null,"dimensions":null,"purposes":["comms"],"wikipedia_slug":null,"has_3d_model":false,"image_url":null,"decayed_at":null,"tle_current":{"epoch":"2026-05-24T21:46:18.113376Z","epoch_age_seconds":79733,"freshness":"FRESH","line1":"1 58841U 24017R   26144.90715409  .00000265  00000+0  21094-4 0  9994","line2":"2 58841  53.1607 210.4246 0001157  88.8469 271.2664 15.30188013131728","mean_motion":15.30188013,"eccentricity":0.0001157,"inclination_deg":53.1607,"raan_deg":210.4246,"arg_perigee_deg":88.8469,"mean_anomaly_deg":271.2664,"bstar":2.1094e-5,"rev_number":13172,"period_min":94.106082897409,"perigee_km":474.45792369882,"apogee_km":476.04379764978,"semimajor_km":6853.3878606743,"source":"CELESTRAK","updated_at":"2026-05-25T13:38:18.755702Z"}}}